Tracking 27097 objects as of 29-Mar-2023
HD Live streaming from Space Station
objects crossing your sky now

SCOUT G-1 DEB

Track SCOUT G-1 DEB now!
10-day predictions


NORAD ID: 44571
Int'l Code: 1985-066K
Perigee: 994.4 km
Apogee: 1,238.9 km
Inclination: 90.2 °
Period: 107.5 minutes
Semi major axis: 7487 km
RCS: Unknown
Launch date: August 3, 1985
Source: United States (US)
Launch site: AIR FORCE WESTERN TEST RANGE (AFWTR)

Note: This is SATELLITE DEBRIS
Your satellite tracking list
Your tracking list is empty




NASA's NSSDC Master Catalog

Two Line Element Set (TLE):
1 44571U 85066K   23086.21926760  .00001566  00000-0  26549-2 0  9994
2 44571  90.1605  69.2650 0163296 317.1480  41.7032 13.39930320500705
Source of the keplerian elements: AFSPC